TimeCDT,TemperatureF,Dew PointF,Humidity,Sea Level PressureIn,VisibilityMPH,Wind Direction,Wind SpeedMPH,Gust SpeedMPH,PrecipitationIn,Events,Conditions,WindDirDegrees,DateUTC
12:53 AM,77.0,72.0,84,29.90,10.0,SSW,3.5,-,N/A,,Clear,200,2013-07-23 05:53:00
1:53 AM,77.0,73.0,88,29.89,10.0,SSW,3.5,-,N/A,,Overcast,200,2013-07-23 06:53:00
2:53 AM,77.0,73.0,88,29.87,10.0,SW,3.5,-,N/A,,Clear,230,2013-07-23 07:53:00
3:53 AM,75.9,73.0,91,29.86,10.0,SSW,5.8,-,N/A,,Clear,200,2013-07-23 08:53:00
4:14 AM,75.2,73.4,94,29.85,10.0,SW,4.6,-,N/A,Thunderstorm,Clear,220,2013-07-23 09:14:00
4:43 AM,77.0,73.4,89,29.84,1.8,SW,23.0,29.9,0.22,Rain-Thunderstorm,Heavy Thunderstorms and Rain,230,2013-07-23 09:43:00
4:51 AM,77.0,73.4,89,29.85,3.0,WSW,17.3,29.9,0.26,Rain-Thunderstorm,Light Thunderstorms and Rain,250,2013-07-23 09:51:00
4:53 AM,77.0,72.0,84,29.84,5.0,WSW,13.8,25.3,0.26,Rain-Thunderstorm,Light Thunderstorms and Rain,250,2013-07-23 09:53:00
5:16 AM,75.2,69.8,83,29.87,1.8,SW,18.4,32.2,0.20,Rain-Thunderstorm,Heavy Thunderstorms and Rain,220,2013-07-23 10:16:00
5:23 AM,75.2,71.6,89,29.88,3.0,SSW,15.0,29.9,0.21,Rain-Thunderstorm,Light Thunderstorms and Rain,210,2013-07-23 10:23:00
5:46 AM,73.4,69.8,88,29.89,3.0,West,20.7,26.5,0.35,Rain-Thunderstorm,Thunderstorms and Rain,280,2013-07-23 10:46:00
5:49 AM,73.4,69.8,88,29.89,1.8,WSW,19.6,26.5,0.43,Rain-Thunderstorm,Heavy Thunderstorms and Rain,240,2013-07-23 10:49:00
5:53 AM,73.0,69.1,87,29.87,1.2,SW,20.7,26.5,0.50,Rain-Thunderstorm,Heavy Thunderstorms and Rain,230,2013-07-23 10:53:00
5:58 AM,73.4,69.8,88,29.87,2.0,SSW,13.8,26.5,0.03,Rain-Thunderstorm,Heavy Thunderstorms and Rain,200,2013-07-23 10:58:00
6:07 AM,73.4,69.8,88,29.87,9.0,WSW,17.3,27.6,0.03,Rain-Thunderstorm,Light Thunderstorms and Rain,250,2013-07-23 11:07:00
6:53 AM,72.0,68.0,87,29.88,2.5,SSW,15.0,-,0.49,Rain-Thunderstorm,Heavy Thunderstorms and Rain,200,2013-07-23 11:53:00
7:02 AM,71.6,69.8,94,29.89,9.0,South,9.2,20.7,0.00,Rain-Thunderstorm,Light Thunderstorms and Rain,180,2013-07-23 12:02:00
7:16 AM,71.6,68.0,88,29.90,10.0,SSW,18.4,-,0.00,Rain-Thunderstorm,Light Rain,200,2013-07-23 12:16:00
7:41 AM,71.6,69.8,94,30.01,1.8,NNE,25.3,34.5,0.22,Rain-Thunderstorm,Heavy Thunderstorms and Rain,30,2013-07-23 12:41:00
7:51 AM,71.6,69.8,94,30.00,1.0,NNE,17.3,28.8,0.38,Rain-Thunderstorm,Heavy Thunderstorms and Rain,30,2013-07-23 12:51:00
7:53 AM,71.1,70.0,96,29.99,1.0,NNE,13.8,25.3,0.43,Rain-Thunderstorm,Heavy Thunderstorms and Rain,20,2013-07-23 12:53:00
7:55 AM,71.6,69.8,94,30.00,0.8,NNE,12.7,21.9,0.05,Rain-Thunderstorm,Heavy Thunderstorms and Rain,30,2013-07-23 12:55:00
8:05 AM,69.8,69.8,100,30.02,1.8,North,16.1,26.5,0.11,Rain-Thunderstorm,Heavy Thunderstorms and Rain,350,2013-07-23 13:05:00
8:11 AM,69.8,69.8,100,30.03,2.5,NNW,12.7,25.3,0.13,Rain-Thunderstorm,Thunderstorms and Rain,340,2013-07-23 13:11:00
8:26 AM,69.8,69.8,100,30.00,1.5,Variable,3.5,-,0.24,Rain-Thunderstorm,Rain,0,2013-07-23 13:26:00
8:31 AM,69.8,66.2,88,29.99,3.0,ESE,5.8,-,0.25,Rain-Thunderstorm,Light Rain,110,2013-07-23 13:31:00
8:44 AM,69.8,66.2,88,29.98,10.0,East,5.8,-,0.25,Rain-Thunderstorm,Light Rain,100,2013-07-23 13:44:00
8:53 AM,70.0,68.0,93,29.96,10.0,East,4.6,-,0.26,Rain-Thunderstorm,Light Rain,100,2013-07-23 13:53:00
9:23 AM,71.6,68.0,88,29.93,10.0,East,5.8,-,0.02,Rain,Light Rain,90,2013-07-23 14:23:00
9:53 AM,72.0,69.1,91,29.94,10.0,South,9.2,-,0.02,,Partly Cloudy,190,2013-07-23 14:53:00
10:53 AM,73.9,70.0,87,29.91,10.0,SW,6.9,-,N/A,,Mostly Cloudy,220,2013-07-23 15:53:00
11:53 AM,77.0,70.0,79,29.90,10.0,East,4.6,-,N/A,,Mostly Cloudy,100,2013-07-23 16:53:00
12:53 PM,82.9,73.0,72,29.88,10.0,WSW,8.1,-,N/A,,Scattered Clouds,250,2013-07-23 17:53:00
1:53 PM,86.0,72.0,63,29.86,10.0,SW,8.1,-,N/A,,Clear,220,2013-07-23 18:53:00
2:53 PM,89.1,68.0,50,29.85,10.0,SW,9.2,-,N/A,,Clear,230,2013-07-23 19:53:00
3:53 PM,91.0,73.9,57,29.82,10.0,SW,9.2,-,N/A,,Clear,230,2013-07-23 20:53:00
4:53 PM,87.1,75.0,67,29.83,10.0,West,10.4,-,N/A,,Clear,270,2013-07-23 21:53:00
5:53 PM,86.0,77.0,74,29.81,10.0,SW,10.4,-,N/A,,Clear,230,2013-07-23 22:53:00
6:34 PM,84.2,77.0,79,29.84,10.0,WSW,10.4,-,N/A,Thunderstorm,Overcast,240,2013-07-23 23:34:00
6:53 PM,84.0,77.0,79,29.84,10.0,SW,11.5,-,0.01,Rain-Thunderstorm,Light Rain,230,2013-07-23 23:53:00
6:59 PM,82.4,77.0,84,29.85,10.0,WSW,9.2,-,0.00,Rain-Thunderstorm,Light Rain,240,2013-07-23 23:59:00
7:32 PM,80.6,75.2,84,29.89,10.0,West,15.0,20.7,0.01,Rain,Light Rain,280,2013-07-24 00:32:00
7:53 PM,79.0,72.0,79,29.87,10.0,WNW,9.2,-,0.02,Rain,Light Rain,290,2013-07-24 00:53:00
8:53 PM,77.0,70.0,79,29.85,10.0,NNE,11.5,-,0.00,,Partly Cloudy,20,2013-07-24 01:53:00
9:53 PM,75.0,70.0,84,29.85,10.0,Calm,Calm,-,N/A,,Clear,0,2013-07-24 02:53:00
10:53 PM,73.0,69.1,87,29.85,10.0,SSW,3.5,-,N/A,,Clear,210,2013-07-24 03:53:00
11:53 PM,72.0,70.0,93,29.87,10.0,Calm,Calm,-,N/A,,Clear,0,2013-07-24 04:53:00